sat.trackr.live / text

‹ back to catalog

STARLINK-32351

NORAD 61529 · 2024-183W

PAYLOAD ACTIVE UNKNOWN

§ Identity

Operator
Country
US
Launch date
2024-10-15
Launch site
AFETR
Launch vehicle
Mass (kg)
RCS (m²)

Purposes: comms

External: N2YO · Heavens-Above · Gunter

§ Orbital elements

Epoch: 2026-05-24T17:15:07.026912Z

Period
94.11 min
Inclination
53.1595°
Eccentricity
0.0000974
Mean motion
15.30184704 rev/d
Perigee alt
474.6 km
Apogee alt
475.9 km
Semi-major
6,853.4 km
B*
3.0598e-6
RAAN
146.4132°
Arg perigee
90.0581°
Mean anomaly
270.0531°
Rev number
9,133

§ Raw data

STARLINK-323511 61529U 24183W   26144.71883133 -.00000268  00000+0  30598-5 0  99982 61529  53.1595 146.4132 0000974  90.0581 270.0531 15.30184704 91334

JSON: /api/v1/satellites/61529 · /tle

For live sub-satellite position, see the globe view (requires WebGL).

§ Visibility from observer

Set your observer location to see the next 7 days of passes ≥ 10°. The values pass through the URL so the page stays shareable.

No JS? Fill the form by hand. The geolocation button needs JavaScript.